LINCON Weather Reports


Display with metric or nautical units.
time (UTC)temp
F
wind
direction
speed
MPH
gust
MPH
rain 1hr
in
rain 24hr
in
rain mn
in
humidity
%
barometer
mb
20260904045230 56 53 5.0 5.0 0.09 0.92 0.18 100 1004.4
20260904044730 56 71 0.0 2.0 0.09 0.92 0.18 99 1004.4
20260904044230 56 0 0.0 0.0 0.10 0.92 0.18 99 1004.4
20260904043730 56 0 0.0 0.0 0.10 0.92 0.18 99 1004.5
20260904043230 56 0 0.0 0.0 0.06 0.82 0.17 99 1004.5
20260904042730 56 0 0.0 0.0 0.06 0.82 0.14 99 1004.5
20260904042230 56 0 0.0 0.0 0.04 0.82 0.13 99 1004.5
20260904041730 56 0 0.0 0.0 0.04 0.82 0.12 99 1004.5
20260904041230 56 0 0.0 0.0 0.01 0.82 0.10 99 1004.5
20260904040730 56 0 0.0 0.0 0.01 0.82 0.09 99 1004.4
20260904040230 56 0 0.0 5.0 0.02 0.82 0.09 99 1004.3
20260904035730 56 44 0.0 5.0 0.02 0.82 0.09 99 1004.3
20260904035230 56 54 0.0 5.0 0.03 0.82 0.09 99 1004.2
20260904034730 56 0 0.0 0.0 0.03 0.82 0.09 99 1004.2
20260904034230 56 0 0.0 0.0 0.04 0.82 0.09 99 1004.3
20260904033731 56 0 0.0 8.0 0.04 0.82 0.08 99 1004.2
20260904033230 56 84 0.0 8.0 0.05 0.78 0.08 99 1004.1
20260904032730 56 79 0.0 8.0 0.05 0.78 0.08 99 1004.0
20260904032230 56 0 0.0 6.0 0.05 0.78 0.08 99 1003.9
20260904031730 57 98 0.0 6.0 0.05 0.78 0.08 99 1003.9
20260904031230 57 0 0.0 3.0 0.07 0.78 0.08 99 1004.1
20260904030730 57 61 0.0 6.0 0.07 0.78 0.08 99 1004.0
20260904030230 57 57 0.0 6.0 0.07 0.78 0.08 99 1003.9
20260904025730 57 113 0.0 6.0 0.07 0.78 0.07 99 1003.9
20260904025231 57 113 0.0 5.0 0.06 0.78 0.06 99 1003.9
20260904024731 57 0 0.0 5.0 0.06 0.78 0.06 99 1003.9
20260904024231 57 77 0.0 5.0 0.04 0.78 0.05 99 1004.1
20260904023732 57 107 0.0 5.0 0.04 0.78 0.04 99 1003.9
20260904023230 58 123 1.0 5.0 0.03 0.74 0.03 99 1003.9
20260904022730 58 112 0.0 6.0 0.03 0.74 0.03 98 1003.9
20260904022230 58 95 0.0 6.0 0.03 0.74 0.03 98 1003.9
20260904021730 58 71 0.0 6.0 0.03 0.74 0.03 98 1003.9
20260904021230 58 0 0.0 0.0 0.01 0.74 0.02 98 1004.0
20260904020730 58 0 0.0 3.0 0.01 0.74 0.01 98 1003.9
20260904020230 59 0 0.0 3.0 0.00 0.74 0.01 98 1003.9
20260904015732 58 92 0.0 3.0 0.00 0.74 0.00 98 1003.9
20260904015230 59 0 0.0 5.0 0.00 0.74 0.00 98 1003.8
20260904014731 59 0 0.0 5.0 0.00 0.74 0.00 98 1003.9
20260904014230 59 68 0.0 5.0 0.00 0.74 0.00 98 1003.9
20260904013730 59 0 0.0 6.0 0.00 0.74 0.00 98 1003.9
20260904013230 58 0 0.0 6.0 0.00 0.74 0.00 98 1003.9
20260904012730 58 121 0.0 6.0 0.00 0.74 0.00 98 1003.9
20260904012231 58 0 0.0 0.0 0.00 0.74 0.00 98 1003.9
20260904011730 58 0 0.0 0.0 0.00 0.74 0.00 98 1004.0
20260904011230 58 0 0.0 4.0 0.00 0.74 0.00 98 1003.9
20260904010730 58 0 0.0 4.0 0.00 0.74 0.00 98 1003.9
20260904010230 58 85 0.0 4.0 0.00 0.74 0.00 98 1003.9
20260904005730 59 113 0.0 3.0 0.00 0.74 0.00 98 1003.9
20260904005230 59 0 0.0 0.0 0.00 0.74 0.00 98 1003.9
20260904004730 59 0 0.0 6.0 0.00 0.74 0.00 98 1004.0
20260904004230 59 149 0.0 6.0 0.00 0.74 0.00 98 1003.9
20260904003730 59 215 1.0 6.0 0.00 0.74 0.00 98 1003.9
20260904003230 59 0 0.0 0.0 0.01 0.74 0.00 98 1004.0
20260904002732 59 0 0.0 0.0 0.01 0.74 0.00 98 1004.0
20260904002230 59 0 0.0 8.0 0.01 0.74 0.00 98 1004.0
20260904001730 59 107 0.0 8.0 0.01 0.74 0.00 98 1004.0
20260904001230 59 120 0.0 8.0 0.02 0.74 0.00 98 1003.9
20260904000730 59 0 0.0 0.0 0.02 0.74 0.00 98 1003.9
20260904000230 59 0 0.0 5.0 0.04 0.74 0.00 98 1003.9
20260903235730 59 235 0.0 5.0 0.04 0.74 0.00 98 1004.0
20260903235230 59 215 0.0 5.0 0.04 0.74 0.00 98 1004.0
20260903234732 59 0 0.0 0.0 0.04 0.74 0.00 98 1004.0
20260903234231 59 0 0.0 0.0 0.04 0.74 0.00 98 1004.0
20260903233730 59 0 0.0 8.0 0.04 0.74 0.00 98 1004.0
20260903233230 59 91 0.0 8.0 0.04 0.74 0.00 98 1004.0
20260903232730 59 106 0.0 8.0 0.04 0.73 0.73 98 1004.1
20260903232230 59 96 0.0 4.0 0.04 0.73 0.73 98 1004.1
20260903231730 59 0 1.0 4.0 0.04 0.73 0.73 98 1004.3
20260903231230 59 0 0.0 4.0 0.04 0.72 0.72 98 1004.3
20260903230730 59 96 0.0 4.0 0.04 0.72 0.72 98 1004.3
20260903230230 59 0 0.0 0.0 0.04 0.71 0.71 98 1004.3
20260903225730 59 0 0.0 0.0 0.04 0.71 0.71 98 1004.4
20260903225230 60 0 0.0 0.0 0.04 0.70 0.70 98 1004.4
20260903224730 59 0 0.0 0.0 0.04 0.70 0.70 98 1004.3
20260903224230 59 0 0.0 0.0 0.04 0.70 0.70 98 1004.4
20260903223730 59 0 0.0 0.0 0.04 0.70 0.70 97 1004.4
20260903223230 58 0 0.0 0.0 0.03 0.70 0.70 97 1004.4
20260903222730 58 0 0.0 6.0 0.03 0.69 0.69 97 1004.4
20260903222230 58 32 0.0 6.0 0.05 0.69 0.69 97 1004.4
20260903221730 58 68 0.0 6.0 0.05 0.69 0.69 97 1004.4
20260903221230 58 95 0.0 6.0 0.08 0.68 0.68 97 1004.4
20260903220730 59 79 0.0 6.0 0.08 0.68 0.68 97 1004.3
20260903220230 59 81 0.0 10.0 0.06 0.67 0.67 97 1004.4
20260903215730 59 0 0.0 10.0 0.06 0.67 0.66 96 1004.4
20260903215230 59 78 0.0 10.0 0.06 0.67 0.66 96 1004.4
20260903214730 59 148 0.0 6.0 0.06 0.67 0.66 96 1004.3
20260903214230 59 65 0.0 6.0 0.07 0.67 0.66 96 1004.3
20260903213730 59 121 0.0 6.0 0.07 0.67 0.66 96 1004.4
20260903213230 59 95 0.0 7.0 0.07 0.66 0.66 95 1004.4
20260903212730 59 0 0.0 7.0 0.07 0.66 0.66 95 1004.5
20260903212230 59 0 0.0 7.0 0.05 0.66 0.66 95 1004.6
20260903211730 59 189 0.0 10.0 0.05 0.64 0.64 94 1004.6
20260903211230 59 0 1.0 10.0 0.01 0.62 0.62 94 1004.8
20260903210730 59 92 0.0 10.0 0.01 0.61 0.60 94 1004.6
20260903210230 59 78 1.0 9.0 0.01 0.61 0.60 93 1004.5
20260903205730 60 100 0.0 9.0 0.01 0.61 0.60 93 1004.4
20260903205230 60 96 3.0 7.0 0.01 0.61 0.60 92 1004.5
20260903204730 60 100 0.0 7.0 0.01 0.61 0.60 92 1004.4
20260903204230 60 95 2.0 9.0 0.00 0.61 0.60 90 1004.4
20260903203731 61 208 4.0 9.0 0.00 0.61 0.59 91 1004.5
20260903203230 61 72 0.0 9.0 0.00 0.63 0.59 93 1004.4
20260903202730 61 112 3.0 11.0 0.00 0.63 0.59 93 1004.3
20260903202232 61 117 6.0 11.0 0.00 0.63 0.59 92 1004.3
20260903201730 61 102 2.0 11.0 0.00 0.63 0.59 96 1004.4
20260903201230 60 120 0.0 9.0 0.01 0.63 0.59 97 1004.4
20260903200730 60 134 5.0 9.0 0.01 0.63 0.59 97 1004.4
20260903200230 60 109 4.0 9.0 0.01 0.63 0.59 98 1004.4
20260903195730 59 128 0.0 9.0 0.01 0.63 0.59 98 1004.5
20260903195230 58 93 0.0 7.0 0.02 0.63 0.59 99 1004.5
20260903194735 58 91 1.0 7.0 0.02 0.63 0.59 99 1004.6
20260903194230 57 137 0.0 7.0 0.02 0.63 0.59 99 1004.6
20260903193730 57 79 2.0 5.0 0.02 0.63 0.59 99 1004.8
20260903193230 57 0 0.0 7.0 0.02 0.74 0.59 99 1004.9
20260903192730 57 123 0.0 7.0 0.02 0.74 0.59 99 1004.9
20260903192230 57 89 1.0 7.0 0.04 0.74 0.59 99 1005.0
20260903191730 57 127 2.0 6.0 0.04 0.74 0.59 98 1005.1
20260903191230 57 100 1.0 6.0 0.04 0.74 0.59 98 1005.1
20260903190730 57 95 0.0 4.0 0.04 0.74 0.58 98 1005.0
20260903190230 57 148 0.0 4.0 0.05 0.74 0.58 98 1005.1
20260903185730 57 81 0.0 3.0 0.05 0.74 0.58 98 1005.0
20260903185230 58 140 0.0 4.0 0.05 0.74 0.58 98 1005.0
20260903184730 58 154 0.0 4.0 0.05 0.74 0.57 98 1005.1
20260903184230 58 137 0.0 4.0 0.05 0.74 0.57 98 1005.0
20260903183731 58 0 0.0 4.0 0.05 0.74 0.57 98 1005.1
20260903183230 58 0 0.0 4.0 0.05 0.76 0.57 99 1005.1
20260903182730 58 75 0.0 4.0 0.05 0.76 0.57 98 1005.1
20260903182230 58 205 0.0 4.0 0.04 0.76 0.56 98 1005.1
20260903181730 58 67 1.0 4.0 0.04 0.76 0.55 98 1005.0
20260903181231 58 67 0.0 4.0 0.03 0.76 0.54 98 1005.1
20260903180730 58 60 0.0 5.0 0.03 0.76 0.54 98 1005.1
20260903180230 58 180 0.0 5.0 0.02 0.76 0.54 98 1005.1
20260903175730 58 175 0.0 5.0 0.02 0.76 0.53 98 1005.1
20260903175230 58 0 0.0 4.0 0.02 0.76 0.53 98 1005.0
20260903174730 58 0 0.0 4.0 0.02 0.76 0.52 98 1005.0
20260903174230 58 0 0.0 4.0 0.04 0.76 0.52 98 1005.0
20260903173730 58 303 0.0 8.0 0.04 0.76 0.52 98 1005.0
20260903173230 58 147 0.0 8.0 0.06 0.78 0.52 98 1004.9
20260903172730 58 208 0.0 8.0 0.06 0.78 0.52 98 1004.9
20260903172230 58 196 1.0 9.0 0.05 0.78 0.52 98 1004.9
20260903171730 59 194 1.0 9.0 0.05 0.78 0.51 98 1004.7
20260903171230 59 149 0.0 9.0 0.05 0.78 0.51 98 1004.7
20260903170730 59 221 0.0 14.0 0.05 0.78 0.51 98 1004.6
20260903170230 58 180 2.0 14.0 0.05 0.78 0.51 98 1004.6
20260903165730 58 194 2.0 14.0 0.05 0.78 0.51 98 1004.6
20260903165230 58 280 3.0 17.0 0.04 0.78 0.51 98 1004.6
20260903164730 59 243 6.0 17.0 0.04 0.78 0.50 98 1004.6
20260903164233 59 256 5.0 17.0 0.02 0.78 0.49 99 1004.6
20260903163730 59 183 3.0 15.0 0.02 0.78 0.48 99 1004.6
20260903163230 59 198 3.0 15.0 0.01 0.80 0.46 99 1004.5
20260903162730 59 155 1.0 15.0 0.01 0.80 0.46 99 1004.5
20260903162230 59 175 0.0 5.0 0.06 0.80 0.46 99 1004.6
20260903161730 59 0 0.0 3.0 0.06 0.80 0.46 99 1004.6
20260903161230 59 0 0.0 3.0 0.06 0.80 0.46 99 1004.6
20260903160730 59 218 0.0 3.0 0.06 0.80 0.46 99 1004.7
20260903160230 59 204 0.0 9.0 0.06 0.80 0.46 99 1004.7
20260903155730 59 0 0.0 9.0 0.06 0.80 0.46 99 1004.6
20260903155229 59 58 0.0 9.0 0.06 0.80 0.46 99 1004.6
20260903154730 59 200 0.0 5.0 0.06 0.80 0.46 99 1004.6
20260903154230 59 208 0.0 5.0 0.06 0.80 0.46 99 1004.6
20260903153730 59 0 0.0 5.0 0.06 0.80 0.46 99 1004.6
20260903153230 59 155 0.0 5.0 0.06 0.82 0.46 99 1004.6
20260903152730 59 240 1.0 5.0 0.06 0.82 0.46 99 1004.7
20260903152230 59 75 0.0 5.0 0.03 0.82 0.40 99 1004.6
20260903151730 59 0 0.0 5.0 0.03 0.82 0.40 99 1004.6
20260903151230 58 89 0.0 5.0 0.13 0.82 0.40 100 1004.6
20260903150732 58 78 0.0 3.0 0.13 0.82 0.40 99 1004.6
20260903150230 57 0 0.0 4.0 0.14 0.82 0.40 99 1004.5
20260903145730 57 0 0.0 4.0 0.14 0.82 0.40 99 1004.5
20260903145229 56 56 0.0 4.0 0.16 0.82 0.40 99 1004.4
20260903144729 56 288 0.0 2.0 0.16 0.82 0.40 99 1004.4
20260903144229 56 0 0.0 0.0 0.18 0.82 0.40 98 1004.4
20260903143729 56 0 0.0 9.0 0.18 0.82 0.40 98 1004.4
20260903143230 56 284 0.0 9.0 0.18 0.66 0.40 98 1004.6
20260903142729 56 281 0.0 9.0 0.18 0.66 0.40 98 1004.7
20260903142229 56 232 0.0 18.0 0.16 0.66 0.39 98 1004.5
20260903141729 56 211 0.0 18.0 0.16 0.66 0.38 98 1004.3
20260903141230 56 228 1.0 18.0 0.09 0.66 0.31 98 1004.5
20260903140729 56 0 6.0 6.0 0.09 0.66 0.27 99 1004.6
20260903140230 56 0 0.0 9.0 0.08 0.66 0.26 98 1004.6
20260903135729 56 190 0.0 9.0 0.08 0.66 0.26 98 1004.6
20260903135230 56 158 0.0 9.0 0.06 0.66 0.24 98 1004.6
20260903134729 56 235 2.0 5.0 0.06 0.66 0.24 99 1004.6
20260903134229 56 219 1.0 4.0 0.07 0.66 0.23 98 1004.5
20260903133729 56 0 0.0 0.0 0.07 0.66 0.22 98 1004.4
20260903133229 56 0 0.0 5.0 0.06 0.59 0.22 98 1004.4
20260903132729 56 0 0.0 5.0 0.06 0.59 0.21 98 1004.3
20260903132229 56 119 0.0 5.0 0.06 0.59 0.21 98 1004.3
20260903131730 56 130 0.0 6.0 0.06 0.59 0.21 98 1004.3
20260903131229 57 81 0.0 6.0 0.03 0.59 0.20 98 1004.4
20260903130729 57 193 0.0 6.0 0.03 0.59 0.19 98 1004.4
20260903130229 57 197 0.0 13.0 0.03 0.59 0.18 98 1004.6
20260903125729 57 187 1.0 13.0 0.03 0.59 0.18 98 1004.5
20260903125229 57 201 0.0 13.0 0.03 0.59 0.18 98 1004.5
20260903124730 57 197 3.0 7.0 0.03 0.59 0.18 99 1004.4
20260903124231 57 303 3.0 7.0 0.00 0.59 0.17 99 1004.6
20260903123730 57 201 0.0 12.0 0.00 0.59 0.15 99 1004.5
20260903123229 57 81 0.0 12.0 0.00 0.60 0.15 98 1004.3
20260903122729 57 105 0.0 12.0 0.00 0.60 0.15 98 1004.3
20260903122232 57 89 0.0 9.0 0.00 0.60 0.15 98 1004.4
20260903121729 57 173 1.0 5.0 0.00 0.60 0.15 98 1004.5
20260903121229 57 212 0.0 5.0 0.00 0.60 0.15 98 1004.5
20260903120729 57 0 0.0 0.0 0.00 0.60 0.15 98 1004.6
20260903120229 57 0 0.0 6.0 0.00 0.60 0.15 98 1004.5
20260903115729 57 191 0.0 6.0 0.00 0.60 0.15 98 1004.5
20260903115229 57 242 0.0 6.0 0.01 0.60 0.15 98 1004.7
20260903114729 57 85 0.0 8.0 0.01 0.60 0.15 98 1004.6
20260903114229 57 109 0.0 8.0 0.01 0.60 0.15 98 1004.6
20260903113729 57 200 0.0 8.0 0.01 0.60 0.15 98 1004.8
20260903113229 57 99 0.0 8.0 0.03 0.59 0.15 97 1004.7
20260903112729 57 191 1.0 10.0 0.03 0.59 0.15 98 1004.8
20260903112229 58 168 0.0 10.0 0.07 0.59 0.15 97 1004.8
20260903111729 58 210 0.0 10.0 0.07 0.59 0.15 97 1004.7
20260903111229 58 257 0.0 11.0 0.09 0.59 0.15 98 1004.7
20260903110729 58 182 2.0 11.0 0.09 0.59 0.15 97 1004.8
20260903110229 58 197 3.0 11.0 0.14 0.59 0.15 98 1004.8
20260903105729 58 236 1.0 10.0 0.14 0.59 0.15 97 1004.7
20260903105229 58 303 3.0 12.0 0.14 0.59 0.15 97 1004.7
20260903104729 59 205 0.0 12.0 0.14 0.59 0.15 97 1004.6
20260903104229 59 187 6.0 12.0 0.14 0.59 0.14 98 1004.7
20260903103729 59 224 3.0 7.0 0.14 0.59 0.14 97 1004.8
20260903103229 59 177 1.0 10.0 0.12 0.45 0.13 97 1004.8
20260903102729 59 204 2.0 10.0 0.12 0.45 0.12 97 1004.7
20260903102229 59 211 1.0 10.0 0.08 0.45 0.12 97 1004.8
20260903101729 59 240 4.0 9.0 0.08 0.45 0.08 97 1004.7
20260903101229 59 197 0.0 9.0 0.06 0.45 0.06 97 1004.7
20260903100730 59 203 0.0 9.0 0.06 0.45 0.06 96 1004.8
20260903100229 59 212 1.0 7.0 0.01 0.45 0.05 96 1004.8
20260903095729 59 205 5.0 5.0 0.01 0.45 0.02 96 1004.8
20260903095229 59 191 0.0 5.0 0.00 0.45 0.00 96 1004.8
20260903094729 59 0 0.0 5.0 0.00 0.45 0.00 96 1004.8
20260903094229 59 191 0.0 5.0 0.00 0.45 0.00 96 1004.9
20260903093729 59 215 0.0 5.0 0.00 0.45 0.00 96 1004.9
20260903093231 59 0 0.0 0.0 0.00 0.45 0.00 96 1005.0
20260903092731 59 0 0.0 5.0 0.00 0.45 0.00 96 1004.9
20260903092231 59 54 0.0 5.0 0.00 0.45 0.00 96 1004.9
20260903091730 59 204 0.0 5.0 0.00 0.45 0.00 96 1004.9
20260903091229 59 204 1.0 7.0 0.00 0.45 0.00 96 1005.0
20260903090730 59 138 0.0 7.0 0.00 0.45 0.00 96 1005.1
20260903090229 59 138 0.0 7.0 0.00 0.45 0.00 96 1004.9
20260903085729 59 109 0.0 9.0 0.00 0.45 0.00 96 1004.8
20260903085229 59 145 1.0 9.0 0.00 0.45 0.00 96 1004.8
20260903084729 59 260 1.0 9.0 0.00 0.45 0.00 96 1004.8
20260903084229 59 187 0.0 6.0 0.00 0.45 0.00 96 1004.8
20260903083732 58 130 0.0 6.0 0.00 0.45 0.00 96 1004.8
20260903083229 58 67 0.0 3.0 0.00 0.45 0.00 96 1004.8
20260903082729 58 0 0.0 3.0 0.00 0.45 0.00 96 1004.8
20260903082229 58 67 0.0 9.0 0.00 0.45 0.00 96 1004.8
20260903081731 58 134 0.0 9.0 0.00 0.45 0.00 96 1004.9
20260903081229 58 196 0.0 9.0 0.00 0.45 0.00 96 1005.0
20260903080729 58 0 0.0 5.0 0.00 0.45 0.00 96 1005.0
20260903080229 58 190 0.0 5.0 0.00 0.45 0.00 96 1005.1
20260903075729 58 0 0.0 5.0 0.00 0.45 0.00 96 1005.1
20260903075229 58 214 0.0 5.0 0.00 0.45 0.00 96 1005.1
20260903074729 58 172 0.0 4.0 0.00 0.45 0.00 97 1005.2
20260903074231 58 208 0.0 4.0 0.00 0.45 0.00 97 1005.1
20260903073729 58 0 0.0 0.0 0.00 0.45 0.00 97 1005.2
20260903073229 58 0 0.0 0.0 0.00 0.45 0.00 97 1005.2
20260903072729 58 0 0.0 5.0 0.00 0.45 0.00 97 1005.1
20260903072229 58 0 0.0 5.0 0.00 0.45 0.00 97 1005.1
20260903071729 58 208 0.0 5.0 0.00 0.45 0.00 97 1005.1
20260903071229 58 156 0.0 6.0 0.00 0.45 0.00 97 1005.1
20260903070729 59 134 0.0 6.0 0.00 0.45 0.00 97 1005.0
20260903070229 58 134 0.0 6.0 0.00 0.45 0.00 97 1005.0
20260903065729 58 112 0.0 4.0 0.00 0.45 0.00 97 1005.0
20260903065229 59 0 0.0 7.0 0.00 0.45 0.00 97 1005.0
20260903064729 58 0 0.0 7.0 0.00 0.45 0.00 97 1005.0
20260903064229 58 114 0.0 7.0 0.00 0.45 0.00 97 1005.1
20260903063729 58 112 0.0 6.0 0.00 0.45 0.00 97 1005.0
20260903063229 58 133 0.0 7.0 0.00 0.45 0.00 97 1005.1
20260903062729 58 0 0.0 7.0 0.00 0.45 0.00 97 1005.1
20260903062229 58 93 0.0 7.0 0.00 0.45 0.00 97 1005.1
20260903061729 58 0 0.0 4.0 0.00 0.45 0.00 97 1005.2
20260903061229 58 275 0.0 4.0 0.00 0.45 0.00 97 1005.2
20260903060729 58 275 0.0 3.0 0.00 0.45 0.00 97 1005.3
20260903060229 58 0 0.0 3.0 0.00 0.45 0.00 97 1005.2
20260903055729 58 275 0.0 3.0 0.00 0.45 0.00 97 1005.2
20260903055229 58 275 0.0 5.0 0.00 0.45 0.00 97 1005.2
20260903054729 58 79 0.0 5.0 0.00 0.45 0.00 97 1005.3
20260903054229 58 254 0.0 5.0 0.00 0.45 0.00 96 1005.3
20260903053729 58 204 0.0 4.0 0.00 0.45 0.00 97 1005.4
20260903053229 58 218 0.0 5.0 0.00 0.45 0.00 96 1005.4
20260903052729 58 183 0.0 5.0 0.00 0.45 0.00 96 1005.3
20260903052229 58 214 0.0 5.0 0.00 0.45 0.00 96 1005.3
20260903051729 58 217 1.0 4.0 0.00 0.45 0.00 96 1005.3
20260903051229 58 96 0.0 3.0 0.00 0.45 0.00 96 1005.2
20260903050729 58 0 0.0 2.0 0.00 0.45 0.00 96 1005.2
20260903050229 58 0 0.0 2.0 0.00 0.45 0.00 96 1005.2
20260903045729 58 152 0.0 4.0 0.00 0.45 0.00 96 1005.2